Home > Weather > Lugano > Past weeks

Flag for Switzerland Weather for the Past 2 Weeks in Lugano, Switzerland

Now
63 °F

Sunny.


Feels Like: 63 °F
Forecast: 39 / 66 °F
Wind: 24 mph from North

Location: Lugano Airport

Current Time: May 4, 2016 at 11:25:42 PM

Latest Report: May 4, 2016 at 8:50 PM


Visibility: 10 mi

Pressure: 30.04 "Hg

Humidity: 24%

Dew Point: 25 °F

Location of LuganoLocation

Historic Weather in Lugano — Graph

°F

Lugano Temperature Yesterday

Maximum temperature yesterday: 72 °F (at 12:20 PM)
Minimum temperature yesterday: 48 °F (at 5:50 AM)
Average temperature yesterday: 63 °F

High & Low Weather Summary for the Past Weeks

 TemperatureHumidityPressure
High73 °F (May 2, 2:50 PM)100% (Apr 27, 7:50 AM)30.33 "Hg (Apr 27, 7:50 AM)
Low36 °F (Apr 25, 6:50 AM)15% (Apr 27, 4:20 PM)29.56 "Hg (Apr 24, 4:20 AM)
Average56 °F56%29.93 "Hg
* Reported Apr 19 7:20 PM — May 4 7:50 PM, Lugano, Weather by CustomWeather, © 2016

Note: Actual official high and low records may vary slightly from our data, if they occured in-between our weather recording intervals... More about our weather records

Advertising

Lugano Weather History for the Previous 24 Hours

Scroll right to see more
 ConditionsComfort  
Time TempWeatherWind HumidityBarometerVisibility
7:50 PM
Wed, May 4
64 °FSunny.21 mph22%30.04 "Hg10 mi
7:20 PM66 °FSunny.20 mph21%30.04 "Hg10 mi
6:50 PM68 °FSunny.22 mph21%30.04 "Hg10 mi
6:20 PM68 °FSunny.21 mph21%30.04 "Hg10 mi
5:50 PM70 °FSunny.21 mph20%30.04 "Hg10 mi
5:20 PM70 °FPassing clouds.18 mph20%30.01 "HgN/A
4:20 PM70 °FSunny.17 mph21%30.04 "Hg10 mi
3:50 PM70 °FSunny.18 mph21%30.04 "Hg10 mi
3:20 PM70 °FPassing clouds.14 mph23%30.04 "HgN/A
2:50 PM70 °FSunny.17 mph21%30.04 "Hg10 mi
2:20 PM70 °FPassing clouds.12 mph25%30.07 "HgN/A
1:20 PM68 °FPassing clouds.16 mph21%30.07 "HgN/A
12:50 PM68 °FSunny.18 mph23%30.07 "Hg10 mi
12:20 PM66 °FSunny.17 mph22%30.07 "Hg10 mi
11:20 AM64 °FSunny.18 mph26%30.09 "Hg10 mi
10:50 AM64 °FSunny.16 mph24%30.09 "Hg10 mi
9:50 AM61 °FSunny.23 mph25%30.09 "Hg10 mi
9:20 AM61 °FPassing clouds.17 mph27%30.09 "HgN/A
8:20 AM57 °FPassing clouds.16 mph29%30.09 "HgN/A
7:50 AM55 °FSunny.20 mph31%30.09 "Hg10 mi
7:20 AM55 °FSunny.16 mph31%30.09 "Hg10 mi
6:20 AM55 °FClear.16 mph31%30.09 "Hg10 mi
5:50 AM55 °FClear.15 mph31%30.07 "Hg10 mi
5:20 AM57 °FClear.14 mph29%30.07 "Hg10 mi
4:50 AM57 °FPassing clouds.13 mph29%30.09 "HgN/A
4:20 AM57 °FPassing clouds.17 mph29%30.09 "HgN/A
3:50 AM57 °FPassing clouds.16 mph29%30.07 "HgN/A
3:20 AM57 °FPassing clouds.13 mph29%30.07 "HgN/A
2:50 AM59 °FPassing clouds.13 mph27%30.07 "HgN/A
2:20 AM57 °FPassing clouds.10 mph29%30.09 "HgN/A
1:50 AM59 °FPassing clouds.16 mph27%30.07 "HgN/A
12:50 AM59 °FPassing clouds.14 mph25%30.07 "HgN/A
12:20 AM57 °FPassing clouds.10 mph27%30.07 "HgN/A
11:50 PM
Tue, May 3
59 °FPassing clouds.12 mph25%30.07 "HgN/A
11:20 PM59 °FPassing clouds.14 mph25%30.07 "HgN/A
Weather by CustomWeather, © 2016

See weather overviewHow to use our weather pages